Regional Weather Roundup
Issued by NWS

Home | Current Version | Previous Version | Text Only | Print | Product List | Glossary On
Versions: 1 2 3 4 5 6 7 8 9 10 11 12 13 14 15 16 17 18 19 20 21 22 23 24 25 26 27 28 29 30 31 32 33 34 35 36 37 38 39 40 41 42 43 44 45 46 47 48 49 50
000
ASUS43 KBIS 231610
RWRND

NORTH DAKOTA REGIONAL WEATHER ROUNDUP
NATIONAL WEATHER SERVICE BISMARCK ND
1100 AM CDT SUN JUL 23 2017

NOTE: "FAIR" INDICATES FEW OR NO CLOUDS BELOW 12,000 FEET WITH NO
SIGNIFICANT WEATHER AND/OR OBSTRUCTIONS TO VISIBILITY.


NDZ001>003-009>011-017-231700-
NORTHWEST NORTH DAKOTA

CITY           SKY/WX    TMP DP  RH WIND       PRES   REMARKS
WILLISTON      SUNNY     78  55  44 VRB5      30.05F
MINOT          SUNNY     73  53  49 CALM      30.06F
MINOT AFB      SUNNY     71  55  55 SW3       30.04F
$$

NDZ018>021-031>035-040>046-231700-
SOUTHWEST NORTH DAKOTA

CITY           SKY/WX    TMP DP  RH WIND       PRES   REMARKS
BISMARCK       SUNNY     73  57  57 VRB5      30.09S
DICKINSON      SUNNY     77  52  41 S6        30.07F
GARRISON         N/A     71  57  61 S6        30.07S
HETTINGER ARPT SUNNY     77  51  40 S6        30.10F
$$

NDZ004>008-012>016-024-026-027-054-231700-
NORTHEAST NORTH DAKOTA

CITY           SKY/WX    TMP DP  RH WIND       PRES   REMARKS
GRAND FORKS    PTSUNNY   70  62  76 N7        30.01S
GRND FRKS AFB  CLOUDY    66  60  80 NE7       30.02S
DEVILS LAKE    SUNNY     69  58  67 NW8       30.06S
$$

NDZ022-023-025-028>030-036>039-047>053-231700-
SOUTHEAST NORTH DAKOTA

CITY           SKY/WX    TMP DP  RH WIND       PRES   REMARKS
FARGO          CLOUDY    66  60  81 N12       30.01R
JAMESTOWN      SUNNY     72  58  61 N12       30.05S
$$





USA.gov is the U.S. government's official web portal to all federal, state and local government web resources and services.